Eelde, Netherlands

3:36 AM CEST on September 29, 2016 (GMT +0200)
Eelde

Weather History for EHGG - March, 2014

Change the Weather History Date:

Wednesday, March 12, 2014

  Actual Average Record
Temperature  
Mean Temperature 44 °F -  
Max Temperature 58 °F 47 °F 60 °F (2007)
Min Temperature 29 °F 34 °F 17 °F (2006)
Degree Days  
Heating Degree Days 22    
Moisture  
Dew Point 34 °F    
Average Humidity 67    
Maximum Humidity 94    
Minimum Humidity 27    
Precipitation  
Precipitation 0.00 in - - ()
Sea Level Pressure  
Sea Level Pressure 30.52 in    
Wind  
Wind Speed 6 mph ()    
Max Wind Speed 11 mph    
Max Gust Speed -    
Visibility 8.7 miles    
Events      
Averages and records for this station are not official NWS values.
T = Trace of Precipitation, MM = Missing Value Source: Averaged Metar Reports

Daily Weather History Graph

Daily Weather History Graph

Search for Another Location

Airport or City:

Trip Planner

Search our weather history database for the weather conditions in past years. The results will help you decide how hot, cold, wet, or windy it might be!

Date:

Astronomy

Mar. 12, 2014 Rise Set
Actual Time 6:55 AM CET 6:32 PM CET
Civil Twilight 6:21 AM CET 7:06 PM CET
Nautical Twilight 5:41 AM CET 7:46 PM CET
Astronomical Twilight 4:59 AM CET 8:28 PM CET
Moon 2:23 PM CET (3/12) 4:44 AM CET (3/12)
Length of Visible Light 12h 45m
Length of Day
11h 36m
Waxing Gibbous, 84% of the Moon is Illuminated
Mar 12
Waxing Gibbous
Mar 16
Full
Mar 24
Last Quarter
Mar 30
New
Apr 7
First Quarter

Hourly Weather History & Observations

Time (CET) Temp. Windchill Dew Point Humidity Pressure Visibility Wind Dir Wind Speed Gust Speed Precip Events Conditions
12:00 AM 37 °F - 33 °F 79% 30.59 in 19 mi ENE 6.7 mph - -  
12:25 AM 35.6 °F 29.9 °F 32.0 °F 87% 30.57 in 6.2 mi ENE 6.9 mph - N/A   Unknown
12:55 AM 35.6 °F 30.7 °F 32.0 °F 87% 30.57 in 6.2 mi ENE 5.8 mph - N/A   Unknown
1:00 AM 36 °F - 31 °F 76% 30.58 in 22 mi ENE 6.7 mph - -   Partly Cloudy
1:25 AM 35.6 °F 29.9 °F 30.2 °F 81% 30.57 in 6.2 mi ENE 6.9 mph - N/A   Unknown
1:55 AM 35.6 °F 30.7 °F 30.2 °F 81% 30.57 in 6.2 mi East 5.8 mph - N/A   Unknown
2:00 AM 36 °F - 30 °F 72% 30.57 in 22 mi East 6.7 mph - -  
2:25 AM 35.6 °F 29.9 °F 30.2 °F 81% 30.57 in 6.2 mi East 6.9 mph - N/A   Unknown
2:55 AM 33.8 °F 27.7 °F 30.2 °F 87% 30.54 in 6.2 mi East 6.9 mph - N/A   Unknown
3:00 AM 35 °F - 30 °F 74% 30.57 in 19 mi East 6.7 mph - -  
3:25 AM 33.8 °F 28.6 °F 30.2 °F 87% 30.54 in 6.2 mi East 5.8 mph - N/A   Unknown
3:55 AM 33.8 °F 28.6 °F 30.2 °F 87% 30.54 in 6.2 mi East 5.8 mph - N/A   Unknown
4:00 AM 35 °F - 30 °F 74% 30.57 in 19 mi East 6.7 mph - -  
4:25 AM 33.8 °F 28.6 °F 28.4 °F 81% 30.54 in 6.2 mi East 5.8 mph - N/A   Unknown
4:55 AM 32.0 °F 25.6 °F 28.4 °F 87% 30.54 in 6.2 mi ENE 6.9 mph - N/A   Unknown
5:00 AM 31 °F - 28 °F 84% 30.56 in 14 mi ENE 6.7 mph - -  
5:25 AM 30.2 °F 23.4 °F 28.4 °F 93% 30.54 in 6.2 mi ENE 6.9 mph - N/A   Unknown
5:55 AM 30.2 °F 24.3 °F 28.4 °F 93% 30.54 in 6.2 mi ENE 5.8 mph - N/A   Unknown
6:00 AM 29 °F - 28 °F 94% 30.57 in 9 mi ENE 6.7 mph - -  
6:25 AM 30.2 °F 23.4 °F 28.4 °F 93% 30.54 in 6.2 mi ENE 6.9 mph - N/A   Unknown
6:55 AM 30.2 °F 23.4 °F 28.4 °F 93% 30.54 in 6.2 mi ENE 6.9 mph - N/A   Unknown
7:00 AM 30 °F - 28 °F 89% 30.57 in 9 mi ENE 6.7 mph - -   Partly Cloudy
7:25 AM 32.0 °F 24.8 °F 28.4 °F 87% 30.57 in 6.2 mi ENE 8.1 mph - N/A   Unknown
7:55 AM 33.8 °F 27.7 °F 30.2 °F 87% 30.57 in 6.2 mi ENE 6.9 mph - N/A   Unknown
8:00 AM 35 °F - 31 °F 82% 30.58 in 6 mi ENE 8.9 mph - -   Mist
8:25 AM 37.4 °F 31.4 °F 32.0 °F 81% 30.57 in 6.2 mi ENE 8.1 mph - N/A   Unknown
8:55 AM 41.0 °F 37.1 °F 35.6 °F 81% 30.57 in 6.2 mi ENE 5.8 mph - N/A   Unknown
9:00 AM 41 °F - 35 °F 73% 30.58 in 14 mi ENE 4.5 mph - -  
9:25 AM 42.8 °F 38.0 °F 35.6 °F 76% 30.57 in 6.2 mi NE 8.1 mph - N/A   Unknown
9:55 AM 44.6 °F 40.2 °F 35.6 °F 71% 30.57 in 6.2 mi ENE 8.1 mph - N/A   Unknown
10:00 AM 45 °F - 36 °F 62% 30.59 in 16 mi East 6.7 mph - -  
10:25 AM 46.4 °F 41.5 °F 35.6 °F 66% 30.57 in 6.2 mi East 10.4 mph - N/A   Unknown
10:55 AM 48.2 °F - 37.4 °F 66% 30.57 in 6.2 mi East 8.1 mph - N/A   Unknown
11:00 AM 49 °F - 36 °F 49% 30.58 in 17 mi East 11.2 mph - -  
11:25 AM 50.0 °F - 35.6 °F 58% 30.57 in 6.2 mi East 10.4 mph - N/A   Unknown
11:55 AM 51.8 °F - 35.6 °F 54% 30.54 in 6.2 mi ENE 10.4 mph - N/A   Unknown
12:00 PM 54 °F - 35 °F 37% 30.56 in 19 mi East 8.9 mph - -  
12:25 PM 53.6 °F - 33.8 °F 47% 30.54 in 6.2 mi East 10.4 mph - N/A   Unknown
12:55 PM 55.4 °F - 35.6 °F 47% 30.54 in 6.2 mi East 9.2 mph - N/A   Unknown
1:00 PM 55 °F - 33 °F 30% 30.54 in 19 mi East 6.7 mph - -   Partly Cloudy
1:25 PM 55.4 °F - 32.0 °F 41% 30.51 in 6.2 mi ESE 8.1 mph - N/A   Unknown
1:55 PM 57.2 °F - 33.8 °F 41% 30.51 in 6.2 mi East 8.1 mph - N/A   Unknown
2:00 PM 57 °F - 33 °F 28% 30.51 in 19 mi East 8.9 mph - -  
2:25 PM 57.2 °F - 32.0 °F 38% 30.48 in 6.2 mi East 8.1 mph - N/A   Unknown
2:55 PM 57.2 °F - 32.0 °F 38% 30.48 in 6.2 mi East 8.1 mph - N/A   Unknown
3:00 PM 58 °F - 33 °F 27% 30.49 in 22 mi East 8.9 mph - -  
3:25 PM 59.0 °F - 33.8 °F 39% 30.48 in 6.2 mi East 6.9 mph - N/A   Unknown
3:55 PM 59.0 °F - 33.8 °F 39% 30.48 in 6.2 mi East 6.9 mph - N/A   Unknown
4:00 PM 58 °F - 34 °F 28% 30.48 in 22 mi ESE 6.7 mph - -  
4:25 PM 59.0 °F - 35.6 °F 42% 30.45 in 6.2 mi East 6.9 mph - N/A   Unknown
4:55 PM 57.2 °F - 35.6 °F 44% 30.45 in 6.2 mi East 6.9 mph - N/A   Unknown
5:00 PM 58 °F - 36 °F 33% 30.46 in 17 mi East 6.7 mph - -  
5:25 PM 57.2 °F - 35.6 °F 44% 30.45 in 6.2 mi East 5.8 mph - N/A   Unknown
5:55 PM 55.4 °F - 37.4 °F 51% 30.45 in 6.2 mi East 4.6 mph - N/A   Unknown
6:00 PM 53 °F - 38 °F 44% 30.46 in 19 mi ENE 4.5 mph - -  
6:25 PM 51.8 °F - 37.4 °F 58% 30.45 in 6.2 mi ENE 5.8 mph - N/A   Unknown
6:55 PM 48.2 °F - 37.4 °F 66% 30.45 in 6.2 mi ENE 5.8 mph - N/A   Unknown
7:00 PM 48 °F - 38 °F 58% 30.46 in 16 mi NE 4.5 mph - -   Partly Cloudy
7:25 PM 46.4 °F 43.5 °F 37.4 °F 71% 30.45 in 6.2 mi ENE 5.8 mph - N/A   Unknown
7:55 PM 46.4 °F 44.3 °F 37.4 °F 71% 30.45 in 6.2 mi NE 4.6 mph - N/A   Unknown
8:00 PM 47 °F - 38 °F 61% 30.46 in 13 mi NE 4.5 mph - -  
8:25 PM 46.4 °F 43.5 °F 37.4 °F 71% 30.45 in 6.2 mi ENE 5.8 mph - N/A   Unknown
8:55 PM 44.6 °F 42.2 °F 37.4 °F 76% 30.45 in 6.2 mi ENE 4.6 mph - N/A   Unknown
9:00 PM 43 °F - 37 °F 72% 30.46 in 10 mi ENE 4.5 mph - -  
9:25 PM 42.8 °F 41.1 °F 37.4 °F 81% 30.45 in 6.2 mi NE 3.5 mph - N/A   Unknown
9:55 PM 41.0 °F 38.0 °F 35.6 °F 81% 30.45 in 6.2 mi ENE 4.6 mph - N/A   Unknown
10:00 PM 41 °F - 36 °F 78% 30.45 in 9 mi ENE 4.5 mph - -  
10:25 PM 41.0 °F 38.0 °F 37.4 °F 87% 30.45 in 6.2 mi East 4.6 mph - N/A   Unknown
10:55 PM 41.0 °F 37.1 °F 35.6 °F 81% 30.42 in 6.2 mi East 5.8 mph - N/A   Unknown
11:00 PM 40 °F - 36 °F 79% 30.45 in 10 mi East 4.5 mph - -   Scattered Clouds
11:25 PM 39.2 °F - 35.6 °F 87% 30.42 in 6.2 mi East 2.3 mph - N/A   Unknown
11:55 PM 39.2 °F - 35.6 °F 87% 30.42 in 6.2 mi NE 2.3 mph - N/A   Unknown